Wind_Speed
38 39 39 43 45 50 51 49 50 48 46 45 40 38 38 37 35 35 35 35 36 37 36 38 39 41 42 42 40 39 38 36 35 35 35 36 36 36 35 34 32 31 29
44 44 43 43 42 44 47 49 48 48 47 48 46 43 39 38 38 38 39 37 38 41 42 41 41 42 42 42 43 42 42 39 38 37 37 37 38 38 38 36 35 34 34
52 51 50 49 47 46 46 45 48 46 43 41 48 42 42 41 42 42 44 45 44 43 43 44 42 41 40 41 43 42 43 42 42 41 40 39 39 39 40 39 38 38 37
61 60 57 55 55 53 49 48 48 52 53 55 54 48 48 49 48 43 43 45 47 46 43 41 40 39 39 41 40 37 40 42 43 43 43 41 41 41 41 40 40 39 39
64 63 62 54 56 58 57 54 52 50 52 55 59 63 61 59 58 55 55 54 51 48 45 42 42 41 39 41 43 40 38 41 44 43 43 43 43 42 41 43 43 42 43
64 64 63 61 58 56 59 61 57 56 53 52 55 58 61 64 64 65 63 60 57 56 53 51 48 48 45 43 44 47 45 43 45 47 43 44 46 44 45 44 45 42 41
68 63 66 67 63 63 65 62 61 57 55 55 56 53 54 54 59 65 65 67 64 61 61 59 55 54 52 51 48 47 48 48 47 46 44 51 46 49 49 43 47 45 42
65 65 64 64 58 58 60 56 59 62 58 55 56 58 55 53 52 56 63 65 66 68 65 62 60 55 54 52 54 51 50 51 50 53 54 49 48 42 44 49 48 50 48
60 59 63 64 66 61 63 62 59 58 60 58 56 59 59 56 55 55 59 63 64 66 67 65 61 56 53 54 55 56 55 52 50 51 52 49 49 53 50 50 47 51 51
56 64 58 63 65 61 64 66 62 61 58 57 57 58 59 59 58 57 56 58 62 62 62 63 60 57 55 56 57 57 55 54 52 52 51 49 52 47 46 45 42 47 48
47 47 58 58 60 65 63 61 64 64 62 61 58 59 62 63 61 63 61 58 59 59 61 62 60 57 58 57 58 57 56 56 54 54 54 48 50 45 43 41 41 43 41
32 33 42 45 48 52 54 57 58 62 61 59 62 63 63 65 62 64 65 58 55 53 53 56 54 53 56 57 57 57 55 56 55 52 54 48 48 47 44 40 40 48 45
29 34 39 41 48 51 51 56 60 59 61 61 61 59 59 60 58 55 54 49 50 51 52 54 54 52 51 53 52 57 51 52 51 48 40 43 40 46 46 44 42 46 39
26 28 28 31 34 34 35 40 42 44 49 51 52 53 47 50 51 51 44 45 56 47 52 53 48 54 53 47 56 57 52 48 46 43 44 44 43 44 48 46 42 47 48
16 20 19 18 24 25 28 31 38 43 42 46 45 45 42 43 41 53 50 50 57 56 49 44 49 50 46 49 43 50 51 52 53 49 52 50 47 51 47 46 46 48 52
15 18 22 24 32 34 36 37 36 38 39 40 50 47 43 46 52 47 56 55 54 53 49 53 50 51 50 49 45 46 51 56 53 55 56 55 57 54 49 50 51 58 60
13 14 18 18 18 20 23 26 28 27 26 34 40 40 47 46 48 39 42 48 56 55 49 55 56 55 54 55 52 53 53 53 55 55 58 55 56 54 52 51 53 54 56
21 23 24 26 28 30 30 32 33 32 33 31 28 33 40 48 48 51 47 42 45 44 43 49 45 49 50 50 50 50 50 54 52 51 51 48 49 48 46 47 49 52 54
28 30 31 33 35 36 37 38 38 38 38 38 38 37 36 32 35 40 37 45 36 35 39 36 40 35 35 38 38 42 41 41 41 42 41 44 45 45 43 42 44 46 48
36 38 40 42 44 45 45 45 46 46 46 47 47 47 46 44 44 44 42 40 43 42 40 38 35 37 38 38 37 41 43 43 44 44 44 45 48 47 47 48 46 46 50
38 39 41 43 46 48 50 52 54 56 56 55 55 54 55 54 53 52 51 51 50 50 50 49 46 46 47 47 45 42 42 38 43 48 42 42 35 34 31 37 38 31 29
41 44 46 49 51 53 54 54 54 55 58 60 62 64 63 63 63 62 60 61 59 58 58 56 55 55 54 54 54 52 45 42 45 45 49 37 40 36 36 30 32 31 30
45 49 52 55 58 60 59 60 60 60 61 62 63 66 69 69 69 69 70 69 69 68 67 65 64 62 61 60 60 58 57 53 50 49 49 46 44 44 45 45 38 36 38
53 56 58 62 65 66 63 63 62 62 63 65 65 66 66 68 71 73 74 72 71 73 75 75 73 72 70 69 67 65 64 64 63 63 62 58 56 55 52 49 48 47 46
57 61 65 65 65 65 65 64 62 60 59 60 61 64 65 66 66 69 71 73 73 76 76 77 78 79 79 78 78 75 73 70 69 69 70 68 66 63 60 56 55 52 51
63 64 66 65 66 61 55 53 53 52 53 54 56 58 61 66 69 70 71 72 74 72 77 80 79 80 81 82 82 83 82 80 77 75 76 74 72 71 68 64 62 60 58
Wind_Direction
268 268 269 267 266 264 265 265 264 264 265 265 265 268 267 262 263 266 263 262 266 264 265 267 266 266 268 270 269 269 268 269 271 272 274 275 276 277 279 281 284 287 287
268 268 268 269 268 267 263 263 266 264 264 261 262 263 263 262 265 265 264 262 268 267 267 266 266 269 269 269 272 270 269 268 268 269 272 274 276 279 280 281 283 284 284
269 268 267 268 267 266 266 262 258 255 259 259 264 256 258 262 264 265 266 269 267 266 269 267 267 268 269 270 270 271 270 269 269 270 269 271 274 276 278 281 282 282 282
268 268 267 267 266 265 265 263 261 262 258 259 261 252 256 259 262 266 265 265 264 267 266 267 267 267 273 270 267 270 269 267 269 270 271 271 270 273 276 279 279 279 281
263 265 267 265 266 265 264 264 264 262 261 260 261 260 262 260 262 263 265 266 265 262 266 268 267 269 272 271 264 267 272 269 266 268 269 270 269 273 277 277 277 277 278
258 259 261 264 262 261 261 261 262 263 263 264 262 261 261 261 261 262 262 262 263 266 266 264 268 270 271 269 266 267 263 269 270 269 267 269 271 273 279 278 278 276 276
252 253 254 257 259 261 262 259 260 262 266 266 265 266 264 263 263 262 262 261 262 264 265 266 265 264 264 265 267 267 262 262 264 265 271 275 271 273 271 280 272 274 273
249 251 250 253 256 257 258 258 258 260 263 266 269 271 270 269 269 266 263 262 262 262 265 267 267 265 263 262 263 262 263 261 263 263 269 269 267 264 273 277 285 271 269
241 241 249 253 253 250 253 256 260 261 263 265 268 270 271 274 270 267 265 263 263 262 262 264 265 264 262 262 261 260 261 261 263 265 264 265 263 262 268 274 280 276 267
238 242 249 249 253 256 256 259 262 264 264 264 266 270 271 274 273 267 263 261 262 262 261 262 262 261 260 259 259 259 259 262 263 265 265 259 262 262 264 270 272 274 272
237 240 246 255 254 259 260 259 261 263 263 265 265 267 268 268 268 268 265 262 256 260 261 260 260 260 259 259 258 258 258 260 263 265 265 257 257 257 260 259 271 272 272
239 252 243 249 252 253 260 261 261 261 263 265 266 266 267 268 268 270 271 265 261 257 259 260 260 261 261 261 260 259 259 262 264 263 262 256 249 245 251 253 255 260 263
254 263 265 267 264 266 268 266 265 264 264 267 269 267 267 269 270 271 269 268 268 266 261 258 260 258 259 254 259 259 260 261 261 258 250 255 245 244 244 251 244 250 248
264 269 266 266 266 267 266 264 265 268 267 266 266 263 264 264 263 260 266 258 263 260 260 259 254 257 258 258 255 258 259 259 247 245 251 249 246 247 243 242 234 233 234
271 279 277 269 262 278 276 270 271 267 272 262 258 272 266 262 263 267 255 256 258 258 259 255 258 253 258 254 259 251 250 255 251 248 254 251 250 248 253 234 232 235 240
297 287 285 277 286 280 275 281 285 280 275 272 264 270 260 271 271 257 261 254 255 248 259 265 264 260 260 258 262 259 252 252 254 252 254 252 251 250 247 235 234 236 241
316 303 302 294 292 295 287 281 282 296 289 280 267 266 267 268 251 256 260 257 256 255 261 262 259 258 260 258 259 255 253 253 251 254 256 251 252 249 248 244 240 240 237
314 308 301 296 295 293 291 288 287 287 285 282 284 274 266 254 251 264 262 258 263 257 254 255 259 256 256 259 260 257 252 249 250 249 251 249 245 246 244 243 241 243 237
307 302 299 296 293 291 289 287 285 284 283 281 279 276 274 273 276 271 265 255 252 254 250 251 251 255 252 252 256 255 256 242 243 238 240 241 240 241 238 246 241 236 240
308 306 303 301 298 295 291 286 283 280 279 277 276 276 273 270 267 264 263 265 263 264 263 262 264 260 258 258 260 253 249 252 244 242 246 244 242 244 243 247 244 243 242
308 305 303 301 300 297 293 290 288 286 284 279 275 271 270 269 266 264 263 262 260 258 258 254 252 255 254 252 257 260 247 249 248 239 242 224 227 231 235 237 218 219 226
307 305 304 301 296 294 292 291 288 284 281 278 277 275 272 269 268 265 261 259 258 259 257 254 253 250 248 252 251 250 250 253 251 244 229 238 236 237 237 235 222 215 224
306 306 303 300 298 297 295 294 291 289 286 281 277 274 272 270 268 266 264 263 261 257 254 254 254 253 251 250 248 247 243 239 245 249 242 238 247 241 235 229 225 229 233
310 307 304 303 304 303 299 294 290 287 284 281 278 276 273 271 269 267 264 263 262 260 258 256 252 250 250 250 250 248 247 243 238 238 239 236 240 242 240 236 234 230 228
310 307 306 307 305 303 300 296 293 290 287 285 283 280 276 273 269 267 265 264 263 261 258 257 255 253 250 248 248 248 247 246 245 243 243 240 242 242 242 242 238 235 233
311 311 311 308 306 305 304 302 300 297 293 291 287 283 281 279 276 273 269 265 261 259 260 259 256 255 253 252 249 247 246 246 245 243 244 242 241 241 240 240 239 238 235
Height
5805 5805 5806 5806 5807 5807 5807 5809 5810 5811 5812 5812 5813 5815 5814 5814 5815 5815 5817 5817 5816 5816 5817 5817 5817 5818 5819 5820 5820 5821 5821 5821 5821 5821 5821 5821 5821 5821 5821 5821 5821 5820 5819
5795 5795 5795 5795 5795 5795 5796 5799 5799 5800 5801 5802 5803 5804 5805 5806 5805 5805 5807 5808 5808 5807 5808 5809 5809 5810 5811 5811 5812 5813 5813 5813 5813 5813 5813 5813 5813 5813 5813 5814 5815 5814 5812
5783 5783 5783 5783 5783 5784 5785 5787 5787 5789 5791 5791 5793 5793 5794 5796 5798 5798 5796 5796 5798 5799 5799 5799 5801 5801 5802 5802 5803 5804 5804 5805 5805 5805 5805 5805 5805 5805 5805 5806 5807 5806 5805
5769 5769 5770 5770 5769 5771 5773 5775 5776 5777 5779 5780 5783 5782 5783 5785 5786 5786 5787 5787 5787 5788 5790 5790 5791 5792 5792 5792 5793 5793 5794 5796 5796 5796 5796 5797 5796 5797 5797 5798 5798 5798 5798
5756 5756 5756 5757 5755 5757 5759 5761 5763 5764 5765 5767 5769 5771 5772 5773 5774 5776 5777 5775 5776 5778 5779 5780 5780 5781 5782 5781 5782 5784 5784 5785 5786 5787 5787 5788 5787 5788 5788 5789 5788 5789 5789
5739 5741 5743 5744 5741 5742 5744 5746 5748 5749 5751 5752 5753 5756 5758 5759 5760 5763 5765 5764 5764 5764 5768 5770 5771 5770 5770 5771 5771 5773 5774 5775 5775 5777 5778 5778 5778 5779 5779 5780 5779 5779 5779
5722 5725 5725 5727 5728 5730 5731 5732 5734 5736 5738 5738 5738 5741 5742 5745 5747 5748 5750 5751 5751 5752 5751 5753 5757 5759 5758 5759 5759 5760 5762 5763 5764 5765 5767 5768 5768 5768 5769 5769 5770 5770 5771
5705 5708 5709 5711 5713 5715 5717 5719 5720 5723 5725 5725 5724 5723 5729 5733 5735 5733 5731 5733 5736 5736 5738 5738 5739 5743 5745 5745 5746 5748 5749 5750 5752 5754 5755 5756 5757 5758 5758 5758 5759 5759 5760
5689 5694 5694 5696 5697 5698 5701 5705 5707 5708 5712 5715 5713 5710 5710 5715 5717 5720 5718 5717 5718 5720 5723 5724 5724 5727 5731 5732 5733 5733 5734 5736 5739 5741 5742 5743 5745 5746 5749 5748 5748 5748 5749
5669 5677 5680 5682 5684 5685 5689 5693 5695 5696 5696 5701 5698 5700 5696 5697 5698 5701 5704 5703 5702 5704 5707 5707 5710 5711 5714 5715 5718 5718 5720 5721 5724 5726 5729 5731 5733 5734 5737 5738 5737 5738 5740
5658 5661 5667 5669 5673 5675 5678 5680 5681 5682 5682 5684 5685 5684 5682 5682 5683 5679 5684 5687 5687 5690 5690 5691 5692 5696 5698 5700 5702 5704 5706 5707 5709 5711 5713 5717 5722 5722 5725 5728 5727 5729 5732
5648 5652 5655 5657 5660 5664 5665 5666 5667 5668 5669 5668 5669 5669 5667 5665 5668 5665 5664 5670 5671 5675 5677 5676 5679 5680 5681 5684 5686 5689 5691 5693 5694 5697 5698 5702 5705 5709 5714 5717 5718 5722 5723
5649 5651 5651 5650 5652 5653 5654 5654 5655 5654 5654 5654 5653 5653 5652 5651 5650 5651 5651 5656 5655 5659 5661 5661 5665 5666 5668 5670 5671 5673 5676 5678 5680 5683 5685 5687 5690 5696 5701 5704 5707 5713 5703
5646 5645 5644 5643 5643 5644 5643 5642 5641 5641 5641 5640 5638 5638 5636 5635 5637 5638 5639 5638 5632 5640 5643 5645 5648 5650 5653 5655 5657 5658 5661 5665 5667 5669 5673 5676 5679 5681 5685 5689 5694 5699 5703
5639 5638 5638 5637 5636 5635 5635 5634 5633 5630 5628 5626 5624 5624 5623 5623 5624 5625 5625 5624 5624 5627 5628 5630 5633 5635 5637 5640 5642 5644 5648 5651 5654 5656 5659 5662 5665 5667 5670 5673 5678 5684 5688
5635 5633 5632 5631 5630 5628 5626 5624 5622 5618 5615 5612 5612 5612 5612 5610 5609 5608 5613 5612 5610 5612 5614 5616 5618 5620 5623 5626 5629 5630 5634 5636 5637 5641 5645 5648 5651 5653 5656 5659 5663 5669 5673
5630 5629 5627 5625 5624 5621 5619 5616 5612 5608 5603 5601 5600 5600 5600 5598 5598 5598 5598 5596 5599 5600 5602 5603 5605 5607 5608 5611 5613 5615 5618 5619 5623 5626 5629 5630 5634 5638 5642 5645 5648 5653 5657
5627 5625 5623 5620 5617 5614 5610 5606 5603 5599 5597 5594 5592 5590 5588 5587 5586 5585 5584 5585 5587 5586 5589 5590 5590 5592 5593 5596 5598 5600 5601 5603 5605 5609 5613 5616 5620 5623 5628 5631 5635 5639 5643
5621 5619 5616 5613 5610 5606 5603 5598 5595 5591 5587 5584 5581 5579 5577 5576 5574 5573 5570 5571 5571 5573 5573 5575 5576 5578 5579 5581 5584 5586 5588 5588 5592 5595 5598 5603 5607 5612 5616 5620 5623 5626 5631
5615 5611 5607 5603 5599 5596 5592 5588 5584 5580 5577 5573 5570 5567 5565 5564 5562 5560 5560 5560 5559 5560 5560 5562 5563 5564 5566 5569 5571 5572 5576 5578 5581 5584 5588 5591 5595 5599 5603 5606 5611 5614 5617
5604 5600 5595 5590 5586 5582 5577 5573 5569 5564 5560 5557 5555 5552 5549 5547 5546 5546 5545 5544 5544 5545 5546 5546 5548 5551 5553 5556 5557 5559 5562 5566 5568 5571 5574 5577 5583 5586 5590 5594 5596 5600 5605
5593 5588 5583 5577 5570 5565 5560 5555 5551 5546 5542 5538 5535 5532 5530 5527 5525 5525 5525 5526 5526 5526 5527 5529 5531 5533 5535 5539 5542 5545 5548 5550 5555 5557 5561 5566 5571 5576 5580 5583 5587 5591 5597
5582 5576 5570 5563 5556 5550 5543 5537 5531 5525 5520 5516 5513 5510 5507 5504 5503 5503 5503 5503 5502 5504 5506 5508 5511 5513 5517 5519 5522 5526 5530 5536 5540 5544 5547 5553 5558 5563 5567 5572 5577 5581 5585
5569 5562 5555 5547 5540 5532 5525 5518 5512 5507 5500 5494 5490 5486 5483 5481 5477 5476 5477 5478 5477 5477 5479 5483 5486 5490 5493 5496 5500 5505 5511 5515 5522 5526 5529 5538 5541 5548 5553 5558 5563 5568 5572
5555 5547 5538 5530 5521 5512 5504 5497 5490 5485 5479 5474 5468 5462 5459 5457 5454 5452 5450 5450 5450 5448 5451 5454 5457 5462 5466 5471 5475 5481 5486 5494 5501 5505 5511 5517 5524 5529 5535 5542 5549 5554 5559
5541 5530 5520 5511 5501 5492 5484 5478 5471 5466 5461 5456 5451 5445 5438 5432 5427 5424 5423 5423 5424 5424 5421 5424 5429 5432 5435 5440 5447 5453 5460 5467 5475 5484 5488 5495 5502 5508 5516 5523 5530 5536 5542